FW8708 Weather Reports


Display with metric or nautical units.
time (UTC)temp
F
wind
direction
speed
MPH
gust
MPH
rain 1hr
in
rain 24hr
in
rain mn
in
humidity
%
barometer
mb
20260504140546 57 215 9.0 15.0 0.00 0.00 0.00 56 1019.1
20260504130532 53 285 5.0 16.0 0.00 0.00 0.00 62 1019.2
20260504110515 45 249 5.0 11.0 0.00 0.00 0.00 69 1018.8
20260504100510 40 259 0.0 2.0 0.00 0.00 0.00 79 1018.9
20260504081559 43 259 3.0 6.0 0.00 0.00 0.00 73 1019.0
20260504081059 43 259 3.0 6.0 0.00 0.00 0.00 72 1019.1
20260504080558 44 259 3.0 6.0 0.00 0.00 0.00 71 1019.1
20260504050519 45 300 0.0 3.0 0.00 0.00 0.00 60 1019.8
20260504050019 46 300 1.0 3.0 0.00 0.00 0.00 58 1019.8
20260504045517 46 300 1.0 3.0 0.00 0.00 0.00 57 1019.8
20260504045018 46 300 0.0 6.0 0.00 0.00 0.00 59 1019.8
20260504044516 46 305 2.0 6.0 0.00 0.00 0.00 56 1019.8
20260504044016 45 305 2.0 6.0 0.00 0.00 0.00 58 1019.8
20260504043522 43 310 2.0 4.0 0.00 0.00 0.00 62 1019.8
20260504043013 43 311 1.0 3.0 0.00 0.00 0.00 66 1019.8
20260504042511 42 311 0.0 2.0 0.00 0.00 0.00 67 1019.8
20260504042010 42 311 0.0 2.0 0.00 0.00 0.00 68 1019.8
20260504041510 42 311 0.0 3.0 0.00 0.00 0.00 68 1019.8
20260504041010 42 311 1.0 3.0 0.00 0.00 0.00 68 1019.7
20260504040508 42 311 0.0 2.0 0.00 0.00 0.00 67 1019.8
20260504040008 42 311 0.0 3.0 0.00 0.00 0.00 67 1019.7
20260504035507 42 311 1.0 3.0 0.00 0.00 0.00 68 1019.8
20260504035007 42 311 0.0 2.0 0.00 0.00 0.00 66 1019.8
20260504034508 42 311 0.0 4.0 0.00 0.00 0.00 66 1019.9
20260504034007 42 311 1.0 4.0 0.00 0.00 0.00 62 1019.9
20260504033506 41 311 2.0 4.0 0.00 0.00 0.00 65 1020.0
20260504033005 41 311 1.0 3.0 0.00 0.00 0.00 65 1019.9
20260504032505 41 311 0.0 2.0 0.00 0.00 0.00 65 1019.8
20260504032007 41 311 1.0 3.0 0.00 0.00 0.00 65 1019.9
20260504031506 41 311 0.0 3.0 0.00 0.00 0.00 65 1019.8
20260504031005 41 311 1.0 2.0 0.00 0.00 0.00 65 1019.8
20260504030504 41 311 0.0 2.0 0.00 0.00 0.00 65 1019.8
20260504030005 41 311 0.0 2.0 0.00 0.00 0.00 63 1019.8
20260504025505 42 311 1.0 3.0 0.00 0.00 0.00 62 1019.9
20260504025005 42 311 1.0 3.0 0.00 0.00 0.00 61 1020.0
20260504024508 43 311 1.0 2.0 0.00 0.00 0.00 60 1020.0
20260504024006 43 311 0.0 2.0 0.00 0.00 0.00 58 1020.0
20260504023504 44 311 0.0 2.0 0.00 0.00 0.00 58 1020.0
20260504023004 45 311 1.0 3.0 0.00 0.00 0.00 53 1020.1
20260504022503 46 311 1.0 3.0 0.00 0.00 0.00 51 1020.1
20260504022004 47 311 1.0 3.0 0.00 0.00 0.00 50 1020.1
20260504021504 49 311 0.0 3.0 0.00 0.00 0.00 46 1019.8
20260504021003 49 311 2.0 4.0 0.00 0.00 0.00 45 1019.8
20260504020503 50 311 1.0 5.0 0.00 0.00 0.00 42 1019.7
20260504020003 50 310 1.0 8.0 0.00 0.00 0.00 42 1019.6
20260504015503 50 310 1.0 8.0 0.00 0.00 0.00 42 1019.6
20260504015003 50 304 3.0 8.0 0.00 0.00 0.00 42 1019.6
20260504014502 51 303 3.0 9.0 0.00 0.00 0.00 41 1019.5
20260504014003 51 304 4.0 9.0 0.00 0.00 0.00 40 1019.4
20260504013505 51 302 4.0 10.0 0.00 0.00 0.00 40 1019.2
20260504013102 51 313 4.0 10.0 0.00 0.00 0.00 41 1019.2
20260504012502 50 298 4.0 12.0 0.00 0.00 0.00 41 1019.3
20260504012001 50 297 4.0 13.0 0.00 0.00 0.00 42 1019.2
20260504011502 49 308 5.0 10.0 0.00 0.00 0.00 44 1019.0
20260504011001 47 263 3.0 7.0 0.00 0.00 0.00 48 1019.2
20260504010501 46 259 2.0 6.0 0.00 0.00 0.00 54 1019.1
20260504010105 46 257 1.0 4.0 0.00 0.00 0.00 56 1019.0
20260504005501 46 257 1.0 4.0 0.00 0.00 0.00 57 1019.0
20260504005100 46 257 2.0 4.0 0.00 0.00 0.00 55 1019.0
20260504004600 47 257 1.0 3.0 0.00 0.00 0.00 55 1018.9
20260504004500 47 257 2.0 3.0 0.00 0.00 0.00 54 1019.0
20260504004059 47 257 1.0 3.0 0.00 0.00 0.00 54 1018.9
20260504003559 47 257 1.0 3.0 0.00 0.00 0.00 53 1019.0
20260504003059 48 257 1.0 3.0 0.00 0.00 0.00 54 1019.0
20260504002559 49 257 1.0 2.0 0.00 0.00 0.00 53 1018.9
20260504002101 50 257 1.0 2.0 0.00 0.00 0.00 51 1018.8
20260504001559 51 257 1.0 3.0 0.00 0.00 0.00 48 1018.9
20260504001059 52 257 1.0 6.0 0.00 0.00 0.00 44 1018.9
20260504000558 53 257 2.0 5.0 0.00 0.00 0.00 41 1018.9
20260504000136 54 257 1.0 3.0 0.00 0.00 0.00 40 1018.9
20260503235558 54 257 1.0 4.0 0.00 0.00 0.00 37 1018.9
20260503235058 55 257 2.0 7.0 0.00 0.00 0.00 37 1018.9
20260503234601 56 257 2.0 7.0 0.00 0.00 0.00 34 1018.9
20260503234058 57 250 2.0 7.0 0.00 0.00 0.00 33 1018.8
20260503233558 57 248 3.0 7.0 0.00 0.00 0.00 32 1018.7
20260503233057 57 259 3.0 9.0 0.00 0.00 0.00 32 1018.7
20260503232557 58 249 5.0 9.0 0.00 0.00 0.00 31 1018.7
20260503232057 58 248 2.0 9.0 0.00 0.00 0.00 34 1018.5
20260503231557 58 263 5.0 9.0 0.00 0.00 0.00 33 1018.4
20260503231056 58 269 4.0 8.0 0.00 0.00 0.00 34 1018.5
20260503230557 58 256 4.0 9.0 0.00 0.00 0.00 34 1018.5
20260503230057 58 233 5.0 11.0 0.00 0.00 0.00 33 1018.5
20260503225555 59 243 8.0 11.0 0.00 0.00 0.00 32 1018.5
20260503225055 59 277 5.0 9.0 0.00 0.00 0.00 32 1018.6
20260503224555 59 264 3.0 10.0 0.00 0.00 0.00 33 1018.6
20260503224054 59 243 3.0 7.0 0.00 0.00 0.00 31 1018.6
20260503223554 59 257 1.0 11.0 0.00 0.00 0.00 31 1018.7
20260503223054 60 288 6.0 12.0 0.00 0.00 0.00 31 1018.8
20260503222554 60 292 5.0 12.0 0.00 0.00 0.00 31 1018.7
20260503222052 60 10 2.0 8.0 0.00 0.00 0.00 31 1018.7
20260503221553 59 9 4.0 10.0 0.00 0.00 0.00 28 1018.7
20260503221056 59 5 4.0 10.0 0.00 0.00 0.00 30 1018.7
20260503220552 59 263 4.0 10.0 0.00 0.00 0.00 29 1018.8
20260503220052 59 316 4.0 10.0 0.00 0.00 0.00 30 1018.8
20260503215552 59 302 5.0 14.0 0.00 0.00 0.00 30 1018.8
20260503215051 59 327 6.0 16.0 0.00 0.00 0.00 29 1018.9
20260503214551 59 263 8.0 16.0 0.00 0.00 0.00 29 1018.8
20260503214054 59 279 6.0 13.0 0.00 0.00 0.00 31 1018.9
20260503213550 59 271 6.0 14.0 0.00 0.00 0.00 28 1018.9
20260503213050 59 252 7.0 19.0 0.00 0.00 0.00 29 1019.1
20260503212551 59 257 11.0 19.0 0.00 0.00 0.00 27 1019.0
20260503212047 60 252 6.0 14.0 0.00 0.00 0.00 28 1019.0
20260503211548 59 196 3.0 8.0 0.00 0.00 0.00 36 1019.1
20260503211046 59 173 0.0 7.0 0.00 0.00 0.00 33 1019.1
20260503210546 59 218 4.0 13.0 0.00 0.00 0.00 30 1019.2
20260503210047 59 270 6.0 10.0 0.00 0.00 0.00 33 1019.2
20260503205546 59 272 6.0 11.0 0.00 0.00 0.00 36 1019.2
20260503205046 59 281 3.0 10.0 0.00 0.00 0.00 36 1019.2
20260503204544 59 277 2.0 10.0 0.00 0.00 0.00 32 1019.2
20260503204042 59 291 4.0 10.0 0.00 0.00 0.00 37 1019.3
20260503203542 58 209 3.0 12.0 0.00 0.00 0.00 32 1019.4
20260503203044 58 209 6.0 12.0 0.00 0.00 0.00 34 1019.4
20260503202541 58 344 4.0 13.0 0.00 0.00 0.00 33 1019.3
20260503202041 58 323 7.0 13.0 0.00 0.00 0.00 33 1019.5
20260503201540 58 309 6.0 12.0 0.00 0.00 0.00 35 1019.5
20260503201043 57 157 3.0 10.0 0.00 0.00 0.00 33 1019.5
20260503200539 58 222 5.0 10.0 0.00 0.00 0.00 37 1019.6
20260503200038 57 273 5.0 14.0 0.00 0.00 0.00 33 1019.6
20260503195539 57 283 8.0 16.0 0.00 0.00 0.00 32 1019.8
20260503195037 57 228 8.0 15.0 0.00 0.00 0.00 33 1019.8
20260503194538 57 309 5.0 15.0 0.00 0.00 0.00 32 1019.8
20260503194037 57 229 7.0 13.0 0.00 0.00 0.00 32 1019.8
20260503193537 57 292 4.0 13.0 0.00 0.00 0.00 34 1020.0
20260503193037 57 286 9.0 15.0 0.00 0.00 0.00 34 1020.1
20260503192536 56 355 9.0 15.0 0.00 0.00 0.00 32 1020.1
20260503192034 56 272 6.0 13.0 0.00 0.00 0.00 33 1020.2
20260503191534 56 286 6.0 14.0 0.00 0.00 0.00 38 1020.4
20260503191033 56 218 5.0 12.0 0.00 0.00 0.00 36 1020.4
20260503190533 56 284 6.0 15.0 0.00 0.00 0.00 39 1020.5
20260503190033 56 225 7.0 13.0 0.00 0.00 0.00 35 1020.5
20260503185532 56 254 4.0 12.0 0.00 0.00 0.00 38 1020.4
20260503185033 55 249 3.0 13.0 0.00 0.00 0.00 36 1020.4
20260503184541 55 200 6.0 17.0 0.00 0.00 0.00 36 1020.5
20260503184030 55 274 11.0 17.0 0.00 0.00 0.00 35 1020.6
20260503183531 55 5 6.0 10.0 0.00 0.00 0.00 39 1020.6
20260503183028 55 184 2.0 9.0 0.00 0.00 0.00 36 1020.6
20260503182528 54 298 2.0 15.0 0.00 0.00 0.00 39 1020.6
20260503182028 55 257 7.0 15.0 0.00 0.00 0.00 38 1020.6
20260503181527 54 239 6.0 12.0 0.00 0.00 0.00 40 1020.7
20260503181031 54 157 1.0 11.0 0.00 0.00 0.00 35 1020.8
20260503180627 54 327 3.0 12.0 0.00 0.00 0.00 41 1020.9
20260503180034 53 290 7.0 12.0 0.00 0.00 0.00 39 1020.9
20260503175525 54 5 5.0 11.0 0.00 0.00 0.00 38 1021.1
20260503175024 54 319 6.0 14.0 0.00 0.00 0.00 42 1021.0
20260503174530 53 28 8.0 16.0 0.00 0.00 0.00 38 1021.0
20260503174025 53 28 7.0 16.0 0.00 0.00 0.00 37 1021.0
20260503173521 53 13 5.0 13.0 0.00 0.00 0.00 43 1021.1
20260503173028 52 275 4.0 13.0 0.00 0.00 0.00 39 1021.2
20260503172519 52 315 6.0 14.0 0.00 0.00 0.00 38 1021.4
20260503172018 52 15 6.0 13.0 0.00 0.00 0.00 41 1021.4
20260503171518 51 303 5.0 15.0 0.00 0.00 0.00 42 1021.6
20260503171019 51 288 8.0 15.0 0.00 0.00 0.00 38 1021.7
20260503170518 51 360 6.0 13.0 0.00 0.00 0.00 37 1021.6
20260503151001 45 360 7.0 17.0 0.00 0.00 0.00 47 1022.5
20260503150501 45 344 9.0 17.0 0.00 0.00 0.00 50 1022.6